sat.trackr.live / text

‹ back to catalog

STARLINK-5217

NORAD 54098 · 2022-136AZ

PAYLOAD ACTIVE UNKNOWN

§ Identity

Operator
Country
US
Launch date
2022-10-20
Launch site
AFETR
Launch vehicle
Mass (kg)
RCS (m²)

Purposes: comms

External: N2YO · Heavens-Above · Gunter

§ Orbital elements

Epoch: 2026-05-24T23:05:29.834304Z

Period
95.44 min
Inclination
53.2124°
Eccentricity
0.0001407
Mean motion
15.08796105 rev/d
Perigee alt
538.9 km
Apogee alt
540.9 km
Semi-major
6,918.0 km
B*
6.2387e-4
RAAN
352.0554°
Arg perigee
107.3187°
Mean anomaly
252.7959°
Rev number
19,849

§ Raw data

STARLINK-52171 54098U 22136AZ  26144.96215086  .00009643  00000+0  62387-3 0  99942 54098  53.2124 352.0554 0001407 107.3187 252.7959 15.08796105198490

JSON: /api/v1/satellites/54098 · /tle

For live sub-satellite position, see the globe view (requires WebGL).

§ Visibility from observer

Set your observer location to see the next 7 days of passes ≥ 10°. The values pass through the URL so the page stays shareable.

No JS? Fill the form by hand. The geolocation button needs JavaScript.